This is the latest recevied weather packets stored in our database for station/object YF9UAG-17. If no packets are shown the sender has not sent any weather packets the latest 10 day(s).
| Time | Temp. | Humidity | Pressure | Rain* | Wind** | Luminosity | Snow |
|---|---|---|---|---|---|---|---|
| 1787536457 | 28.33° C | 52% | 1035.6 hPa | - | - | - | - |
| 1787535854 | 27.78° C | 54% | 1035.6 hPa | - | - | - | - |
| 1787535249 | 27.22° C | 54% | 1035.5 hPa | - | - | - | - |
| 1787534646 | 27.78° C | 53% | 1035.4 hPa | - | - | - | - |
| 1787534043 | 27.78° C | 53% | 1035.4 hPa | - | - | - | - |
| 1787533440 | 27.78° C | 52% | 1035.4 hPa | - | - | - | - |
| 1787532837 | 28.33° C | 51% | 1035.2 hPa | - | - | - | - |
| 1787532233 | 27.78° C | 52% | 1035.2 hPa | - | - | - | - |
| 1787531629 | 28.33° C | 60% | 1035 hPa | - | - | - | - |
| 1787531026 | 28.33° C | 57% | 1034.9 hPa | - | - | - | - |
| 1787530423 | 27.78° C | 53% | 1034.7 hPa | - | - | - | - |
| 1787529820 | 27.78° C | 54% | 1034.8 hPa | - | - | - | - |
| 1787529217 | 27.78° C | 56% | 1034.7 hPa | - | - | - | - |
| 1787528612 | 27.78° C | 55% | 1034.6 hPa | - | - | - | - |
| 1787528009 | 27.78° C | 55% | 1034.5 hPa | - | - | - | - |
| 1787527406 | 27.78° C | 55% | 1034.4 hPa | - | - | - | - |
| 1787526803 | 27.22° C | 55% | 1034.3 hPa | - | - | - | - |
| 1787526200 | 27.22° C | 55% | 1034.1 hPa | - | - | - | - |
| 1787525597 | 27.22° C | 54% | 1033.9 hPa | - | - | - | - |
| 1787524993 | 27.78° C | 52% | 1033.8 hPa | - | - | - | - |
| 1787524390 | 27.78° C | 52% | 1033.7 hPa | - | - | - | - |
| 1787523787 | 27.78° C | 52% | 1033.7 hPa | - | - | - | - |
| 1787523184 | 27.78° C | 52% | 1033.6 hPa | - | - | - | - |
| 1787522581 | 27.78° C | 52% | 1033.5 hPa | - | - | - | - |
| 1787521978 | 27.78° C | 52% | 1033.4 hPa | - | - | - | - |
* Rain since midnight (hover to see other rain measurements)
** Current wind speed in m/s (hover to see current wind gust speed)